[[{"header":{"parameterUnit":"m.s-1","parameterCategory":2,"la1":30.2991,"la2":30.254,"lo1":-89.0895,"lo2":-89.0444,"dy":0.0017,"dx":0.0017,"nx":28,"ny":28,"refTime":"2025-07-07T21:00:00:Z","depth":"0","parameterNumber":2,"parameterNumberName":"U-component_of_CURRENTS"},"data":[0,0,0,0,0,0,0,0,0,0,0,0,0,0,0,0,0,0,0,0,0,0,0,0,0,0,0,0,0,0,0,0,0,0,0,0,0,0,0,0,0,0,0,0,0,0,0,0,0,0,0,0,0,0,0,0,0,0,0.2843,0.2843,0,0.283,0.283,0.283,0.2801,0.2801,0.28,0.28,0.2844,0.2846,0.2848,0,0,0,0,0,0,0,0,0,0,0,0,0,0.2871,0.287,0.2843,0.2843,0.2843,0.283,0.283,0.283,0.2801,0.2801,0.28,0.28,0.2844,0.2846,0.2848,0,0,0,0,0,0,0,0,0,0,0,0,0,0.2857,0.287,0.2843,0.2828,0.2827,0.283,0.283,0.283,0.2801,0.2801,0.28,0.28,0.2843,0.2846,0.2848,0.2875,0,0,0.2855,0.2856,0,0,0,0,0,0,0,0,0.2857,0.2855,0.283,0.2829,0.2828,0.2818,0.2856,0.2848,0.2802,0.2809,0.28,0.2799,0.2843,0.2845,0.2841,0.2877,0.2879,0.2855,0.2857,0.2858,0.2859,0,0,0,0,0,0,0,0.2858,0.2856,0.2836,0.2831,0.2829,0.2833,0.283,0.2854,0.2829,0.2808,0.2807,0.2809,0.2842,0.2838,0.2842,0.288,0.2855,0.2857,0.2859,0.286,0.3047,0.305,0,0,0,0,0,0,0.2863,0.2857,0.2836,0.2836,0.2844,0.2833,0.2829,0.2821,0.2828,0.2828,0.2809,0.2807,0.2835,0.2839,0.2843,0.2949,0.2858,0.286,0.2861,0.3043,0.3047,0.3051,0,0,0,0,0,0,0.2863,0.2861,0.2837,0.2848,0.2846,0.2833,0.2824,0.2821,0.2821,0.2828,0.2829,0.2813,0.2834,0.284,0.2894,0.2948,0.2861,0.2863,0.3039,0.3044,0.3049,0.3115,0,0,0,0,0,0,0.2864,0.2861,0.286,0.2848,0.2845,0.2862,0.2824,0.2821,0.2824,0.2821,0.2832,0.2835,0.2834,0.2891,0.2896,0.295,0.2865,0.3034,0.3041,0.3048,0.3108,0.3122,0.3133,0,0,0,0,0,0.2865,0.2867,0.2859,0.2857,0.2842,0.2864,0.2864,0.2851,0.2825,0.2844,0.2855,0.2835,0.2938,0.2895,0.2901,0.2956,0.3031,0.3039,0.3047,0.3103,0.3119,0.3133,0,0,0,0,0,0,0.2881,0.2864,0.2855,0.2853,0.2869,0.286,0.2869,0.2858,0.2876,0.2871,0.2868,0.2874,0.2951,0.2949,0.2902,0.3036,0.2986,0.2996,0.3027,0.3042,0.3055,0.3053,0.2867,0,0,0,0,0,0.2885,0.288,0.2879,0.2882,0.2887,0.2878,0.2883,0.2878,0.289,0.2894,0.2903,0.2932,0.2989,0.3008,0.3052,0.3109,0.3123,0.3156,0.3169,0.3179,0.3187,0.3273,0.3293,0.3077,0.3077,0.3077,0,0,0.289,0.2884,0.2879,0.2886,0.2887,0.2914,0.2879,0.2895,0.2926,0.29,0.2945,0.2977,0.3019,0.3096,0.313,0.3096,0.325,0.3189,0.3197,0.3199,0.3283,0.3304,0.3322,0.3083,0.3082,0.3081,0,0,0.2915,0.2896,0.2909,0.2924,0.2938,0.2941,0.295,0.2954,0.2965,0.3023,0.3024,0.3086,0.3149,0.3191,0.3223,0.3332,0.3321,0.3352,0.3401,0.3485,0.3503,0.3519,0.3557,0.3576,0.3348,0.3348,0.3348,0,0.2926,0.2931,0.2923,0.2948,0.296,0.2958,0.2986,0.3012,0.3037,0.3065,0.3056,0.3183,0.3203,0.3312,0.335,0.3359,0.3388,0.3331,0.3499,0.3515,0.353,0.3565,0.3585,0.3352,0.3352,0.3351,0.3351,0,0.2964,0.2972,0.2984,0.301,0.3034,0.3054,0.3086,0.3118,0.3133,0.3164,0.3272,0.3315,0.3389,0.3417,0.3414,0.3538,0.3518,0.3509,0.345,0.3555,0.3586,0.3605,0.3358,0.3357,0.3355,0.3354,0,0,0.2958,0.3,0.3,0.3017,0.3057,0.3077,0.3146,0.3208,0.3264,0.3319,0.341,0.3503,0.352,0.3558,0.3572,0.3633,0.3752,0.3612,0.3614,0.363,0.3917,0.3733,0.3736,0.3773,0.3777,0.378,0.3891,0,0.2983,0.3032,0.3051,0.31,0.312,0.315,0.3221,0.3285,0.335,0.3446,0.3513,0.3618,0.3579,0.3632,0.369,0.3755,0.3808,0.3721,0.3829,0.3832,0.3641,0.3754,0.3589,0.3659,0.391,0.3913,0.3915,0,0.2993,0.3026,0.3076,0.3133,0.3147,0.3189,0.3283,0.3354,0.3492,0.3553,0.3657,0.3721,0.3837,0.3793,0.3934,0.3882,0.3904,0.3933,0.3939,0.3756,0.3685,0.36,0.3684,0.3644,0.3944,0.3942,0.394,0,0.2963,0.3027,0.3063,0.308,0.3167,0.3201,0.3256,0.3381,0.3465,0.3633,0.3724,0.3855,0.3938,0.4015,0.4046,0.4021,0.4183,0.4158,0.4009,0.3996,0.3868,0.3834,0.3905,0.426,0.426,0.4259,0.4259,0,0.2952,0.2974,0.3049,0.3065,0.3136,0.3194,0.3295,0.338,0.3534,0.3649,0.3775,0.388,0.4002,0.4093,0.4113,0.4105,0.4237,0.4037,0.4026,0.3882,0.385,0.3814,0.3813,0.4264,0.4263,0.4262,0.4261,0,0.2902,0.295,0.2996,0.3086,0.3119,0.317,0.3303,0.3394,0.3533,0.3693,0.3759,0.3937,0.4035,0.4112,0.4232,0.4163,0.4076,0.4152,0.394,0.3898,0.3664,0.3671,0.3493,0.3413,0.4024,0.402,0.4017,0,0.2875,0.2897,0.2999,0.3048,0.3086,0.3171,0.325,0.3385,0.3486,0.3704,0.3785,0.3931,0.3986,0.407,0.4013,0.4009,0.3948,0.3832,0.3737,0.3639,0.3644,0.3457,0.3392,0.3614,0.3608,0.3603,0.3599,0,0.2845,0.2887,0.2944,0.3039,0.3113,0.3191,0.3297,0.3353,0.3519,0.3622,0.3746,0.3805,0.3862,0.3764,0.3725,0.3702,0.3638,0.372,0.3721,0.3405,0.3112,0.3032,0.3534,0.3554,0.3559,0.3562,0.3565,0.3566,0.2834,0.2872,0.2962,0.3032,0.3117,0.317,0.3157,0.3263,0.334,0.3401,0.3564,0.3543,0.3571,0.3469,0.3426,0.3272,0.3269,0.3186,0.3231,0.3068,0.2891,0.324,0.3167,0.3169,0.3171,0.3172,0.3174,0,0.2836,0.2883,0.2951,0.3017,0.3036,0.3107,0.3163,0.31,0.307,0.3167,0.3187,0.3162,0.3064,0.3083,0.2975,0.2844,0.2705,0.2798,0.2594,0.2583,0.3015,0.29,0.2638,0.2638,0.2638,0.2638,0.2638,0.2638,0.2854,0.2903,0.2915,0.291,0.2928,0.2877,0.2842,0.2767,0.2767,0.2668,0.2624,0.2663,0.2813,0.281,0.2694,0.2633,0.2494,0.2277,0.2355,0.2784,0.2825,0.2865,0.2758,0.2471,0.2471,0.1768,0.1763,0.176]},{"header":{"parameterUnit":"m.s-1","parameterCategory":2,"la1":30.2991,"la2":30.254,"lo1":-89.0895,"lo2":-89.0444,"dy":0.0017,"dx":0.0017,"nx":28,"ny":28,"refTime":"2025-07-07T21:00:00:Z","depth":"0","parameterNumber":3,"parameterNumberName":"V-component_of_CURRENTS"},"data":[0,0,0,0,0,0,0,0,0,0,0,0,0,0,0,0,0,0,0,0,0,0,0,0,0,0,0,0,0,0,0,0,0,0,0,0,0,0,0,0,0,0,0,0,0,0,0,0,0,0,0,0,0,0,0,0,0,0,0.0301,0.0301,0,0.0289,0.0289,0.0289,0.0273,0.0273,0.0273,0.0273,0.0264,0.0264,0.0264,0,0,0,0,0,0,0,0,0,0,0,0,0,0.0291,0.0292,0.0301,0.0301,0.03,0.0289,0.0289,0.0289,0.0273,0.0273,0.0273,0.0272,0.0264,0.0264,0.0264,0,0,0,0,0,0,0,0,0,0,0,0,0,0.0289,0.0292,0.0301,0.0291,0.029,0.0289,0.0289,0.0289,0.0273,0.0273,0.0273,0.0272,0.0264,0.0264,0.0264,0.0273,0,0,0.0265,0.0265,0,0,0,0,0,0,0,0,0.0289,0.029,0.0293,0.0292,0.0291,0.0282,0.0283,0.0284,0.0274,0.028,0.0273,0.0272,0.0271,0.027,0.0269,0.0272,0.0272,0.0265,0.0265,0.0265,0.0265,0,0,0,0,0,0,0,0.029,0.029,0.0296,0.0293,0.0291,0.0281,0.0281,0.0283,0.0278,0.0279,0.0278,0.0277,0.027,0.0269,0.0269,0.0272,0.0265,0.0265,0.0265,0.0265,0.0315,0.0316,0,0,0,0,0,0,0.0292,0.029,0.0297,0.0296,0.0289,0.0282,0.0281,0.0285,0.0278,0.0276,0.0277,0.0276,0.0269,0.0269,0.0269,0.031,0.0265,0.0265,0.0265,0.0314,0.0315,0.0317,0,0,0,0,0,0,0.0292,0.0293,0.0297,0.0292,0.0292,0.0283,0.0287,0.0285,0.0284,0.0276,0.0275,0.0278,0.0269,0.0268,0.0282,0.0308,0.0265,0.0265,0.0312,0.0314,0.0316,0.0372,0,0,0,0,0,0,0.0292,0.0294,0.0298,0.0293,0.0292,0.0306,0.0288,0.0285,0.0284,0.0283,0.0276,0.0275,0.0269,0.0282,0.0282,0.0307,0.0265,0.031,0.0313,0.0315,0.0369,0.0376,0.0382,0,0,0,0,0,0.0292,0.0303,0.0298,0.0299,0.0299,0.0307,0.0306,0.0298,0.0284,0.0293,0.029,0.0275,0.0298,0.0283,0.0283,0.0309,0.0309,0.0312,0.0315,0.0366,0.0374,0.0382,0,0,0,0,0,0,0.0298,0.0303,0.0297,0.0308,0.031,0.0304,0.031,0.03,0.0303,0.0303,0.0289,0.0289,0.0311,0.0303,0.0287,0.0331,0.0302,0.0305,0.0341,0.0349,0.0356,0.0383,0.0265,0,0,0,0,0,0.0302,0.0314,0.0313,0.0322,0.0325,0.0316,0.0317,0.0314,0.0315,0.0315,0.0309,0.0311,0.0323,0.0329,0.0335,0.0357,0.0347,0.0375,0.0381,0.0387,0.0411,0.0417,0.0426,0.0326,0.0326,0.0326,0,0,0.0305,0.031,0.0315,0.0324,0.0324,0.0349,0.0316,0.0326,0.035,0.0315,0.0341,0.0331,0.0334,0.0362,0.0372,0.0358,0.0406,0.0391,0.0396,0.0416,0.0421,0.043,0.0439,0.0328,0.0328,0.0328,0,0,0.0329,0.0324,0.0348,0.0357,0.0366,0.0369,0.0374,0.0374,0.0375,0.0399,0.0382,0.0391,0.0403,0.0413,0.042,0.0467,0.0439,0.0464,0.0524,0.0529,0.0538,0.0545,0.0526,0.0531,0.047,0.0471,0.0471,0,0.0333,0.0366,0.0355,0.0385,0.0401,0.0384,0.042,0.0425,0.0429,0.0443,0.0419,0.0451,0.0435,0.0486,0.0498,0.0484,0.0473,0.0491,0.0538,0.0545,0.0551,0.053,0.0535,0.0474,0.0473,0.0473,0.0473,0,0.0381,0.0409,0.0424,0.0463,0.0477,0.0504,0.0513,0.0528,0.0525,0.0531,0.0566,0.055,0.0575,0.0563,0.0545,0.059,0.0561,0.0541,0.0517,0.0565,0.0539,0.0543,0.0478,0.0477,0.0476,0.0475,0,0,0.0394,0.045,0.0456,0.0493,0.0523,0.0545,0.0587,0.0626,0.0671,0.0661,0.0721,0.0714,0.0699,0.0707,0.068,0.0678,0.069,0.0633,0.0631,0.0613,0.0687,0.0629,0.0627,0.0676,0.0677,0.0678,0.0644,0,0.044,0.0518,0.0529,0.0608,0.0652,0.0655,0.0705,0.0735,0.0754,0.0806,0.079,0.0836,0.0757,0.0779,0.0763,0.0722,0.0707,0.07,0.0646,0.0644,0.0586,0.0633,0.0663,0.0632,0.0647,0.0648,0.0648,0,0.0489,0.054,0.0622,0.0702,0.0721,0.0761,0.0841,0.0887,0.0943,0.096,0.0987,0.098,0.099,0.0918,0.0862,0.0861,0.0784,0.0733,0.073,0.0666,0.0595,0.0591,0.0639,0.0583,0.0654,0.0654,0.0654,0,0.0521,0.0606,0.0678,0.0702,0.0786,0.0822,0.0871,0.0932,0.1005,0.107,0.1136,0.112,0.1143,0.1058,0.0933,0.0909,0.0861,0.0813,0.0684,0.0678,0.0691,0.0683,0.0683,0.0777,0.0777,0.0777,0.0777,0,0.0573,0.0632,0.0699,0.0741,0.0843,0.0875,0.099,0.1033,0.1135,0.1256,0.1226,0.1313,0.1181,0.1135,0.0996,0.0855,0.0905,0.0713,0.0678,0.0707,0.0702,0.0641,0.0586,0.0776,0.0776,0.0776,0.0777,0,0.0607,0.0646,0.0742,0.0832,0.0864,0.0942,0.1078,0.118,0.1249,0.1412,0.1451,0.147,0.1404,0.1246,0.1105,0.0946,0.0772,0.0741,0.0767,0.0736,0.0548,0.0494,0.046,0.0437,0.0606,0.0605,0.0604,0,0.0633,0.0684,0.0803,0.0877,0.0921,0.1035,0.1138,0.1233,0.136,0.1519,0.1623,0.1603,0.161,0.136,0.109,0.0838,0.075,0.0679,0.0634,0.0562,0.0477,0.0463,0.0447,0.0665,0.0665,0.0664,0.0664,0,0.0695,0.0732,0.0816,0.0961,0.1072,0.121,0.1358,0.147,0.1617,0.1743,0.1888,0.1899,0.1669,0.1435,0.1065,0.0882,0.0658,0.0657,0.0603,0.0546,0.0516,0.0471,0.0641,0.0659,0.066,0.066,0.066,0.0661,0.0742,0.0814,0.0926,0.1064,0.1204,0.138,0.1499,0.1666,0.1858,0.2046,0.2047,0.2076,0.1757,0.1265,0.101,0.0613,0.0609,0.05,0.0445,0.0441,0.0417,0.0555,0.0516,0.0516,0.0515,0.0515,0.0515,0,0.0816,0.0898,0.1027,0.1202,0.1362,0.1419,0.1654,0.178,0.1994,0.2135,0.2218,0.21,0.17,0.1301,0.0765,0.0483,0.0407,0.0341,0.0362,0.0357,0.051,0.0511,0.0446,0.0446,0.0446,0.0446,0.0446,0.0446,0.0863,0.0991,0.1053,0.1304,0.1429,0.164,0.177,0.1949,0.209,0.2256,0.2296,0.23,0.209,0.1122,0.055,0.0389,0.0261,0.0184,0.012,0.0248,0.0261,0.0273,0.0264,0.0149,0.0148,0.0046,0.0044,0.0043]}],[{"header":{"parameterUnit":"m.s-1","parameterCategory":2,"la1":30.2991,"la2":30.254,"lo1":-89.0895,"lo2":-89.0444,"dy":0.0017,"dx":0.0017,"nx":28,"ny":28,"refTime":"2025-07-07T21:00:00:Z","depth":"2","parameterNumber":2,"parameterNumberName":"U-component_of_CURRENTS"},"data":[0,0,0,0,0,0,0,0,0,0,0,0,0,0,0,0,0,0,0,0,0,0,0,0,0,0,0,0,0,0,0,0,0,0,0,0,0,0,0,0,0,0,0,0,0,0,0,0,0,0,0,0,0,0,0,0,0,0,0.2671,0.2672,0,0.2661,0.2661,0.266,0.2639,0.2639,0.2639,0.2638,0.2672,0.2673,0.2674,0,0,0,0,0,0,0,0,0,0,0,0,0,0.2694,0.2694,0.2671,0.2672,0.2672,0.2661,0.2661,0.266,0.2639,0.2639,0.2639,0.2638,0.2672,0.2673,0.2674,0,0,0,0,0,0,0,0,0,0,0,0,0,0.2682,0.2693,0.2671,0.2661,0.2661,0.2661,0.2661,0.266,0.2639,0.2639,0.2639,0.2638,0.2671,0.2673,0.2674,0.2691,0,0,0.2679,0.268,0,0,0,0,0,0,0,0,0.2683,0.2681,0.2663,0.2662,0.2661,0.2653,0.2681,0.2673,0.2639,0.2645,0.2638,0.2638,0.2671,0.2673,0.2668,0.2692,0.2694,0.2679,0.268,0.2681,0.2682,0,0,0,0,0,0,0,0.2683,0.2681,0.2665,0.2663,0.2662,0.2665,0.2662,0.2679,0.2659,0.2644,0.2643,0.2646,0.2671,0.2666,0.2669,0.2694,0.2679,0.2681,0.2682,0.2683,0.2824,0.2826,0,0,0,0,0,0,0.2689,0.2682,0.2665,0.2665,0.2674,0.2665,0.2662,0.2654,0.2658,0.2659,0.2646,0.2645,0.2664,0.2667,0.267,0.2765,0.2681,0.2683,0.2684,0.2821,0.2824,0.2827,0,0,0,0,0,0,0.2689,0.2687,0.2666,0.2676,0.2674,0.2665,0.2656,0.2654,0.2657,0.2659,0.266,0.2653,0.2663,0.2668,0.271,0.2763,0.2683,0.2685,0.2818,0.2822,0.2826,0.2907,0,0,0,0,0,0,0.2689,0.2687,0.2688,0.2676,0.2673,0.2687,0.2657,0.2654,0.266,0.2658,0.2666,0.2667,0.2664,0.2708,0.2712,0.2764,0.2686,0.2814,0.282,0.2824,0.29,0.2913,0.2924,0,0,0,0,0,0.269,0.2692,0.2687,0.2686,0.2673,0.2689,0.2689,0.268,0.2661,0.2677,0.2685,0.2668,0.2744,0.2711,0.2715,0.2769,0.2812,0.2818,0.2824,0.2895,0.2911,0.2923,0,0,0,0,0,0,0.2704,0.269,0.2685,0.2682,0.2696,0.2687,0.2695,0.2688,0.2702,0.27,0.2694,0.2698,0.2763,0.2755,0.2719,0.2828,0.2779,0.2786,0.2832,0.2846,0.2858,0.2863,0.2688,0,0,0,0,0,0.2708,0.2704,0.2704,0.2707,0.2711,0.2705,0.2709,0.2707,0.2715,0.2719,0.2727,0.2747,0.2791,0.2807,0.2838,0.2885,0.2892,0.2927,0.2939,0.2949,0.2958,0.3028,0.3047,0.2848,0.2848,0.2848,0,0,0.2714,0.2708,0.2705,0.2711,0.2712,0.2732,0.2706,0.2721,0.2749,0.2724,0.2764,0.2789,0.2815,0.2881,0.2908,0.2878,0.3009,0.2957,0.2965,0.2969,0.3037,0.3056,0.3073,0.2852,0.2851,0.2851,0,0,0.2733,0.272,0.2729,0.2743,0.2756,0.2757,0.2767,0.2772,0.2786,0.2836,0.2834,0.2888,0.2935,0.2969,0.2992,0.3086,0.3073,0.3101,0.3157,0.3225,0.3242,0.3256,0.3281,0.3298,0.31,0.31,0.31,0,0.2745,0.2745,0.274,0.2761,0.2772,0.2772,0.2796,0.2819,0.2843,0.287,0.2866,0.297,0.2985,0.3076,0.3112,0.3113,0.3134,0.3097,0.324,0.3254,0.3268,0.329,0.3307,0.3105,0.3104,0.3104,0.3103,0,0.2771,0.2778,0.2788,0.2808,0.2831,0.2847,0.2878,0.2909,0.2928,0.2956,0.3054,0.3091,0.3151,0.3177,0.3175,0.3285,0.3263,0.325,0.3199,0.3293,0.331,0.3326,0.3112,0.311,0.3108,0.3107,0,0,0.2765,0.2797,0.2799,0.2815,0.2849,0.2868,0.2928,0.2981,0.3032,0.3088,0.3166,0.3255,0.3275,0.3304,0.3318,0.3377,0.3486,0.3358,0.3359,0.3373,0.3618,0.3461,0.3462,0.3503,0.3506,0.3509,0.3587,0,0.2782,0.2818,0.2836,0.2879,0.2894,0.2925,0.2987,0.3046,0.3105,0.3185,0.3252,0.3343,0.3325,0.3375,0.3432,0.3476,0.3535,0.3465,0.3534,0.3535,0.3376,0.3478,0.3183,0.3216,0.3603,0.3605,0.3607,0,0.2786,0.2811,0.2855,0.2906,0.2919,0.2959,0.3044,0.3108,0.3223,0.3281,0.3375,0.3427,0.3529,0.3508,0.3627,0.3585,0.3615,0.3642,0.3645,0.3481,0.3408,0.3189,0.323,0.3634,0.3631,0.3629,0.3628,0,0.2758,0.2812,0.2845,0.2862,0.2938,0.2976,0.3025,0.3135,0.3211,0.3354,0.3432,0.3539,0.362,0.3681,0.3715,0.3695,0.3831,0.3803,0.3691,0.3679,0.343,0.3388,0.391,0.391,0.391,0.391,0.3909,0,0.2742,0.2764,0.2837,0.2853,0.2912,0.2977,0.3072,0.3139,0.3279,0.3374,0.3484,0.3568,0.3678,0.375,0.3762,0.3758,0.3868,0.372,0.3703,0.3446,0.3408,0.3767,0.375,0.3912,0.3912,0.3911,0.3911,0,0.2698,0.2741,0.2785,0.2871,0.2897,0.2948,0.3076,0.3155,0.3294,0.3424,0.3481,0.363,0.3702,0.3768,0.3866,0.3811,0.3829,0.3804,0.3469,0.341,0.3619,0.3605,0.3693,0.3688,0.3685,0.3681,0.3679,0,0.2671,0.2695,0.2784,0.2827,0.2864,0.2952,0.3014,0.3143,0.3232,0.3432,0.3484,0.3618,0.3642,0.3704,0.3648,0.3631,0.3753,0.3359,0.3264,0.3629,0.3605,0.3597,0.3588,0.2971,0.2963,0.2956,0.2951,0,0.2642,0.2686,0.2729,0.2809,0.2869,0.2943,0.3036,0.3071,0.3231,0.3313,0.3388,0.3422,0.3479,0.3303,0.33,0.3251,0.3326,0.3217,0.3727,0.3055,0.295,0.2925,0.2941,0.289,0.2896,0.2901,0.2904,0.2907,0.2627,0.2646,0.2722,0.278,0.2863,0.2904,0.2874,0.2954,0.2998,0.3031,0.3168,0.3101,0.312,0.2921,0.2814,0.2732,0.2968,0.2843,0.2864,0.2893,0.2778,0.2671,0.2536,0.254,0.2543,0.2546,0.2549,0,0.2607,0.2642,0.2693,0.2749,0.2772,0.2862,0.2873,0.2787,0.2706,0.2769,0.2767,0.2509,0.2384,0.2406,0.2175,0.2155,0.2144,0.2072,0.2044,0.2106,0.216,0.2008,0.1562,0.1559,0.1556,0.1553,0,0,0.2605,0.2619,0.2617,0.2627,0.2675,0.2635,0.2574,0.2445,0.2405,0.224,0.2164,0.2311,0.2354,0.1952,0.1878,0.1683,0.1889,0.161,0.2404,0.2435,0.2486,0.2606,0.244,0,0,0,0,0]},{"header":{"parameterUnit":"m.s-1","parameterCategory":2,"la1":30.2991,"la2":30.254,"lo1":-89.0895,"lo2":-89.0444,"dy":0.0017,"dx":0.0017,"nx":28,"ny":28,"refTime":"2025-07-07T21:00:00:Z","depth":"2","parameterNumber":3,"parameterNumberName":"V-component_of_CURRENTS"},"data":[0,0,0,0,0,0,0,0,0,0,0,0,0,0,0,0,0,0,0,0,0,0,0,0,0,0,0,0,0,0,0,0,0,0,0,0,0,0,0,0,0,0,0,0,0,0,0,0,0,0,0,0,0,0,0,0,0,0,0.0211,0.0211,0,0.0199,0.0199,0.0199,0.0186,0.0186,0.0186,0.0185,0.0172,0.0172,0.0172,0,0,0,0,0,0,0,0,0,0,0,0,0,0.0204,0.0204,0.0211,0.0211,0.0211,0.0199,0.0199,0.0199,0.0186,0.0186,0.0185,0.0185,0.0172,0.0172,0.0172,0,0,0,0,0,0,0,0,0,0,0,0,0,0.0201,0.0204,0.0212,0.0203,0.0202,0.0199,0.0199,0.0199,0.0186,0.0186,0.0185,0.0185,0.0172,0.0172,0.0172,0.0176,0,0,0.0171,0.0171,0,0,0,0,0,0,0,0,0.0201,0.0201,0.0205,0.0204,0.0203,0.0194,0.0192,0.0191,0.0186,0.0192,0.0185,0.0185,0.0179,0.0178,0.0177,0.0175,0.0175,0.0171,0.0171,0.017,0.017,0,0,0,0,0,0,0,0.0201,0.0202,0.0207,0.0204,0.0203,0.0193,0.0193,0.0191,0.0188,0.0192,0.0191,0.0189,0.0179,0.0177,0.0177,0.0174,0.0171,0.0171,0.017,0.017,0.0198,0.0199,0,0,0,0,0,0,0.0204,0.0202,0.0207,0.0206,0.0201,0.0194,0.0193,0.0197,0.0188,0.0186,0.019,0.0189,0.0178,0.0177,0.0176,0.021,0.017,0.017,0.017,0.0197,0.0198,0.0199,0,0,0,0,0,0,0.0204,0.0205,0.0208,0.0203,0.0203,0.0194,0.0199,0.0197,0.0197,0.0186,0.0184,0.0191,0.0178,0.0176,0.0185,0.0208,0.017,0.017,0.0196,0.0197,0.0198,0.0259,0,0,0,0,0,0,0.0204,0.0205,0.021,0.0204,0.0203,0.0215,0.0199,0.0197,0.0196,0.0195,0.0187,0.0185,0.0177,0.0185,0.0185,0.0207,0.017,0.0195,0.0196,0.0198,0.0256,0.0263,0.0268,0,0,0,0,0,0.0204,0.0214,0.021,0.0211,0.021,0.0216,0.0215,0.0207,0.0197,0.0204,0.0199,0.0186,0.0195,0.0186,0.0185,0.0208,0.0194,0.0196,0.0198,0.0254,0.0261,0.0268,0,0,0,0,0,0,0.0209,0.0214,0.0209,0.0219,0.022,0.0214,0.0218,0.021,0.0211,0.0212,0.0196,0.0195,0.0211,0.02,0.019,0.022,0.0193,0.0195,0.0235,0.0243,0.0248,0.0275,0.0169,0,0,0,0,0,0.0213,0.0225,0.0223,0.0231,0.0234,0.0226,0.0226,0.0224,0.0223,0.0222,0.0215,0.0212,0.0218,0.0222,0.0221,0.0238,0.0223,0.0252,0.0258,0.0263,0.0284,0.028,0.0288,0.0205,0.0205,0.0205,0,0,0.0216,0.022,0.0226,0.0234,0.0233,0.0254,0.0226,0.0235,0.0255,0.0221,0.0244,0.0231,0.0226,0.0247,0.0253,0.0242,0.0275,0.0266,0.0271,0.0289,0.0283,0.0291,0.0299,0.0207,0.0207,0.0206,0,0,0.0238,0.0233,0.0255,0.0263,0.0271,0.0272,0.0277,0.0276,0.0279,0.0298,0.028,0.0283,0.0288,0.0292,0.0295,0.0333,0.0303,0.0328,0.0385,0.0381,0.0388,0.0394,0.0368,0.0371,0.0335,0.0335,0.0335,0,0.0242,0.0271,0.0261,0.0288,0.0303,0.0286,0.0318,0.0322,0.0324,0.0336,0.0316,0.0332,0.0316,0.0354,0.0365,0.0349,0.0333,0.0358,0.039,0.0395,0.0401,0.0372,0.0375,0.0338,0.0338,0.0338,0.0337,0,0.0284,0.031,0.0323,0.0357,0.0369,0.0393,0.04,0.0413,0.0411,0.0414,0.0441,0.0421,0.0436,0.0425,0.0409,0.0443,0.0414,0.0394,0.0373,0.0413,0.038,0.0381,0.0343,0.0342,0.0341,0.034,0,0,0.0296,0.0345,0.0352,0.0386,0.041,0.0431,0.0466,0.0499,0.0537,0.0527,0.0573,0.0565,0.0549,0.0551,0.0525,0.052,0.0524,0.0479,0.0477,0.0456,0.0502,0.0462,0.0459,0.051,0.0511,0.0512,0.0458,0,0.0337,0.0407,0.0417,0.0487,0.0528,0.053,0.0574,0.0599,0.0611,0.0648,0.0629,0.0663,0.06,0.0617,0.0599,0.0549,0.0536,0.054,0.0466,0.0463,0.0425,0.0463,0.0459,0.041,0.046,0.046,0.046,0,0.0381,0.0428,0.0503,0.0576,0.0593,0.063,0.0699,0.074,0.0777,0.079,0.0805,0.0787,0.0786,0.0729,0.0662,0.0668,0.0598,0.0547,0.0543,0.0493,0.0428,0.0382,0.0411,0.0463,0.0462,0.0462,0.0462,0,0.0413,0.0489,0.0556,0.0579,0.0654,0.069,0.0733,0.0782,0.0849,0.0889,0.0942,0.0908,0.0925,0.0833,0.0715,0.0696,0.0631,0.0588,0.0483,0.0478,0.0456,0.0448,0.0551,0.0551,0.0551,0.0551,0.0551,0,0.046,0.0515,0.0578,0.0618,0.0712,0.0744,0.085,0.0882,0.0968,0.1071,0.1027,0.1088,0.0958,0.0898,0.0761,0.0628,0.0662,0.0509,0.0474,0.0474,0.0468,0.0501,0.0496,0.0549,0.055,0.055,0.055,0,0.0493,0.053,0.062,0.0704,0.0732,0.0806,0.0935,0.1027,0.1087,0.1221,0.1251,0.1239,0.1155,0.0999,0.085,0.071,0.0571,0.0514,0.0509,0.0476,0.0404,0.0403,0.0396,0.0394,0.0393,0.0392,0.0391,0,0.0518,0.0567,0.0677,0.0746,0.0788,0.0899,0.0992,0.1079,0.1192,0.1316,0.1396,0.1357,0.1332,0.1078,0.0833,0.059,0.0564,0.0425,0.0392,0.0427,0.0394,0.0395,0.0395,0.0373,0.0372,0.0372,0.0371,0,0.0577,0.0614,0.069,0.0826,0.0927,0.1061,0.1195,0.1291,0.1421,0.1513,0.1602,0.1582,0.1362,0.1107,0.0785,0.0612,0.0457,0.0399,0.046,0.0414,0.0402,0.0371,0.0373,0.0364,0.0364,0.0365,0.0365,0.0365,0.0621,0.0684,0.0789,0.0918,0.1051,0.1217,0.1322,0.1457,0.161,0.1743,0.1723,0.1679,0.1413,0.098,0.0692,0.0396,0.0429,0.0302,0.0307,0.0312,0.0319,0.0307,0.025,0.025,0.025,0.025,0.025,0,0.0685,0.076,0.088,0.1047,0.12,0.1266,0.1466,0.1564,0.1712,0.1793,0.1832,0.1543,0.1275,0.0968,0.0534,0.0277,0.0256,0.0172,0.0208,0.0218,0.0226,0.023,0.0135,0.0134,0.0133,0.0132,0,0,0.0724,0.0835,0.089,0.1137,0.127,0.1475,0.1583,0.1698,0.1781,0.1804,0.1765,0.1722,0.1359,0.101,0.0659,0.0404,0.0366,0.0339,0.046,0.0554,0.0565,0.0329,0.0349,0,0,0,0,0]}],[{"header":{"parameterUnit":"m.s-1","parameterCategory":2,"la1":30.2991,"la2":30.254,"lo1":-89.0895,"lo2":-89.0444,"dy":0.0017,"dx":0.0017,"nx":28,"ny":28,"refTime":"2025-07-07T21:00:00:Z","depth":"4","parameterNumber":2,"parameterNumberName":"U-component_of_CURRENTS"},"data":[0,0,0,0,0,0,0,0,0,0,0,0,0,0,0,0,0,0,0,0,0,0,0,0,0,0,0,0,0,0,0,0,0,0,0,0,0,0,0,0,0,0,0,0,0,0,0,0,0,0,0,0,0,0,0,0,0,0,0.17,0.17,0,0.1743,0.1743,0.1744,0.1783,0.1784,0.1785,0.1786,0.1822,0.1822,0.1822,0,0,0,0,0,0,0,0,0,0,0,0,0,0.1655,0.1655,0.17,0.1701,0.1701,0.1743,0.1743,0.1744,0.1783,0.1784,0.1785,0.1786,0.1822,0.1822,0.1822,0,0,0,0,0,0,0,0,0,0,0,0,0,0.1681,0.1655,0.17,0.1728,0.1731,0.1743,0.1743,0.1744,0.1783,0.1784,0.1785,0.1786,0.1822,0.1822,0.1823,0.1803,0,0,0.1824,0.1824,0,0,0,0,0,0,0,0,0.168,0.1683,0.1723,0.1726,0.173,0.1761,0.1741,0.1764,0.1783,0.1761,0.1786,0.1787,0.1802,0.1804,0.1806,0.1805,0.1807,0.1824,0.1824,0.1824,0.1824,0,0,0,0,0,0,0,0.1678,0.1681,0.1714,0.1724,0.1728,0.174,0.1745,0.1745,0.1772,0.1763,0.1766,0.1775,0.1803,0.1806,0.1807,0.1807,0.1824,0.1824,0.1825,0.1825,0.1895,0.1897,0,0,0,0,0,0,0.1676,0.1679,0.1713,0.1716,0.171,0.174,0.1745,0.1748,0.1773,0.1778,0.1774,0.1777,0.1804,0.1807,0.1809,0.1877,0.1824,0.1825,0.1825,0.1894,0.1895,0.1897,0,0,0,0,0,0,0.1675,0.1679,0.1711,0.1701,0.1706,0.174,0.1743,0.1748,0.1787,0.1782,0.1787,0.1811,0.1805,0.1808,0.1837,0.1876,0.1825,0.1825,0.1892,0.1894,0.1896,0.1957,0,0,0,0,0,0,0.1673,0.1678,0.1698,0.1701,0.1707,0.1743,0.1742,0.1748,0.1789,0.1794,0.1815,0.1817,0.1806,0.1836,0.1837,0.1875,0.1826,0.189,0.1893,0.1896,0.1953,0.1961,0.1968,0,0,0,0,0,0.1672,0.1687,0.1698,0.1704,0.1727,0.1744,0.1749,0.1774,0.179,0.1812,0.1824,0.1818,0.1857,0.1837,0.1838,0.1878,0.1888,0.1892,0.1895,0.1949,0.1959,0.1968,0,0,0,0,0,0,0.168,0.1693,0.1705,0.1726,0.1748,0.1753,0.178,0.1795,0.1821,0.1835,0.1829,0.1832,0.1876,0.1867,0.1846,0.1908,0.1875,0.1879,0.1916,0.1925,0.1933,0.192,0.1826,0,0,0,0,0,0.169,0.1708,0.1721,0.1743,0.1756,0.1775,0.1794,0.181,0.1826,0.1841,0.1858,0.1874,0.1885,0.1898,0.1907,0.1934,0.1937,0.1963,0.1971,0.1977,0.1969,0.2029,0.2041,0.1909,0.1909,0.1909,0,0,0.1702,0.1712,0.1725,0.1748,0.1767,0.1779,0.179,0.1826,0.1843,0.1838,0.1884,0.1904,0.1899,0.1933,0.1952,0.1934,0.2016,0.1982,0.1988,0.1975,0.2034,0.2047,0.2058,0.1912,0.1911,0.1911,0,0,0.1712,0.1743,0.1753,0.1774,0.1808,0.1813,0.1832,0.1862,0.1889,0.1924,0.193,0.1971,0.1992,0.1999,0.1999,0.2053,0.2057,0.2072,0.2098,0.2157,0.2168,0.2178,0.2195,0.2205,0.2074,0.2074,0.2075,0,0.1731,0.1736,0.1763,0.1777,0.1795,0.183,0.1842,0.1867,0.1908,0.1936,0.195,0.2009,0.2017,0.2045,0.2067,0.2071,0.2094,0.2062,0.2167,0.2177,0.2186,0.2201,0.2212,0.2078,0.2077,0.2077,0.2077,0,0.1728,0.1754,0.1766,0.1787,0.1813,0.1837,0.1866,0.1911,0.1951,0.1978,0.2046,0.2064,0.2104,0.2119,0.2105,0.2176,0.2168,0.2173,0.2143,0.2203,0.2214,0.2225,0.2083,0.2081,0.208,0.208,0,0,0.171,0.1753,0.1762,0.1778,0.1823,0.1839,0.1882,0.1924,0.1968,0.2027,0.2086,0.2118,0.2164,0.2167,0.2181,0.2221,0.2306,0.2229,0.2231,0.2241,0.2422,0.226,0.2255,0.2346,0.2349,0.235,0.2401,0,0.1701,0.1713,0.1747,0.1779,0.1783,0.1845,0.1883,0.1938,0.1994,0.2068,0.2114,0.218,0.2171,0.2218,0.2258,0.2305,0.2339,0.229,0.2363,0.2364,0.2211,0.2263,0.2358,0.2409,0.2412,0.2413,0.2414,0,0.1676,0.1685,0.1703,0.1768,0.1783,0.1823,0.1902,0.1948,0.2049,0.2104,0.2181,0.2233,0.2308,0.2302,0.2394,0.2374,0.24,0.2419,0.2422,0.2252,0.2221,0.2338,0.2433,0.2432,0.243,0.2429,0.2428,0,0.1614,0.1663,0.1674,0.1694,0.1765,0.1816,0.1875,0.1969,0.2022,0.2153,0.2223,0.2305,0.238,0.2431,0.2477,0.2463,0.2566,0.2554,0.2417,0.2406,0.251,0.2499,0.2613,0.2612,0.2612,0.2612,0.2612,0,0.1569,0.159,0.1659,0.1668,0.1712,0.1794,0.1873,0.1949,0.2068,0.2136,0.2258,0.2313,0.2427,0.2495,0.2512,0.2489,0.2603,0.2417,0.2413,0.2532,0.2523,0.2516,0.2505,0.2614,0.2614,0.2613,0.2613,0,0.1499,0.1542,0.1563,0.1647,0.1683,0.1725,0.1866,0.1913,0.2061,0.2159,0.2215,0.2355,0.2445,0.2519,0.2602,0.2522,0.2526,0.2488,0.2597,0.26,0.2312,0.2303,0.2331,0.2326,0.2321,0.2318,0.2315,0,0.1458,0.1456,0.1533,0.1543,0.1593,0.1675,0.1725,0.1883,0.1938,0.215,0.2178,0.2333,0.2408,0.2394,0.2474,0.2487,0.2458,0.2426,0.2362,0.2292,0.2287,0.2285,0.2282,0.2308,0.2307,0.2305,0.2304,0,0.137,0.1412,0.1429,0.1446,0.1499,0.1544,0.1645,0.1684,0.1868,0.202,0.2101,0.2156,0.2246,0.2289,0.2324,0.2323,0.2427,0.2379,0.2387,0.2327,0.2264,0.2263,0.2265,0.2289,0.2291,0.2293,0.2293,0,0.1314,0.13,0.1323,0.1336,0.1378,0.1393,0.1474,0.1554,0.1644,0.1897,0.1906,0.2082,0.2219,0.2204,0.2229,0.2226,0.2185,0.2092,0.2114,0.2132,0.2041,0.193,0.1847,0,0,0,0,0,0.1237,0.1206,0.1203,0.1205,0.1239,0.1276,0.1394,0.1486,0.1686,0.1692,0.1803,0.1882,0.1944,0.2014,0.1972,0.2122,0.2181,0.2058,0.2082,0.2204,0.2222,0.2132,0,0,0,0,0,0,0.1183,0.117,0.116,0.1089,0.1074,0.111,0.1191,0.1328,0.135,0.1559,0.1606,0.1746,0.1835,0.1955,0.193,0.1951,0.1919,0.2159,0.2153,0.2194,0.221,0.2224,0.2138,0,0,0,0,0]},{"header":{"parameterUnit":"m.s-1","parameterCategory":2,"la1":30.2991,"la2":30.254,"lo1":-89.0895,"lo2":-89.0444,"dy":0.0017,"dx":0.0017,"nx":28,"ny":28,"refTime":"2025-07-07T21:00:00:Z","depth":"4","parameterNumber":3,"parameterNumberName":"V-component_of_CURRENTS"},"data":[0,0,0,0,0,0,0,0,0,0,0,0,0,0,0,0,0,0,0,0,0,0,0,0,0,0,0,0,0,0,0,0,0,0,0,0,0,0,0,0,0,0,0,0,0,0,0,0,0,0,0,0,0,0,0,0,0,0,0.0089,0.0089,0,0.0083,0.0083,0.0082,0.0076,0.0076,0.0075,0.0075,0.0058,0.0058,0.0058,0,0,0,0,0,0,0,0,0,0,0,0,0,0.0083,0.0084,0.0089,0.0089,0.0089,0.0083,0.0083,0.0082,0.0076,0.0076,0.0075,0.0075,0.0058,0.0058,0.0058,0,0,0,0,0,0,0,0,0,0,0,0,0,0.0083,0.0084,0.0089,0.0085,0.0084,0.0083,0.0083,0.0082,0.0076,0.0076,0.0075,0.0075,0.0059,0.0058,0.0058,0.0058,0,0,0.0056,0.0056,0,0,0,0,0,0,0,0,0.0083,0.0083,0.0085,0.0085,0.0084,0.008,0.0074,0.0074,0.0076,0.0079,0.0075,0.0075,0.0064,0.0063,0.0063,0.0057,0.0056,0.0056,0.0056,0.0055,0.0055,0,0,0,0,0,0,0,0.0083,0.0083,0.0087,0.0085,0.0085,0.0079,0.0078,0.0074,0.0073,0.0079,0.0078,0.0077,0.0064,0.0064,0.0063,0.0056,0.0056,0.0055,0.0055,0.0055,0.0055,0.0056,0,0,0,0,0,0,0.0084,0.0083,0.0087,0.0087,0.0083,0.0079,0.0079,0.0082,0.0073,0.0072,0.0077,0.0077,0.0065,0.0063,0.0062,0.0078,0.0055,0.0055,0.0055,0.0055,0.0056,0.0056,0,0,0,0,0,0,0.0084,0.0085,0.0087,0.0084,0.0084,0.0079,0.0082,0.0081,0.0083,0.0072,0.007,0.008,0.0064,0.0063,0.0064,0.0076,0.0055,0.0054,0.0055,0.0055,0.0056,0.0099,0,0,0,0,0,0,0.0084,0.0085,0.0088,0.0085,0.0084,0.0093,0.0082,0.0081,0.0083,0.0082,0.0074,0.0072,0.0064,0.0065,0.0063,0.0075,0.0054,0.0054,0.0055,0.0056,0.0097,0.0101,0.0104,0,0,0,0,0,0.0084,0.009,0.0089,0.0089,0.0089,0.0093,0.0093,0.0088,0.0083,0.0088,0.0082,0.0073,0.0067,0.0065,0.0063,0.0075,0.0054,0.0055,0.0056,0.0096,0.01,0.0104,0,0,0,0,0,0,0.0087,0.009,0.0088,0.0095,0.0096,0.0092,0.0095,0.0091,0.0091,0.0092,0.0078,0.0076,0.0081,0.0071,0.0068,0.0076,0.0059,0.0059,0.009,0.0094,0.0097,0.0104,0.0053,0,0,0,0,0,0.009,0.0098,0.0097,0.0103,0.0105,0.0101,0.0101,0.0101,0.0099,0.0098,0.0092,0.0085,0.0082,0.0082,0.0077,0.0083,0.0063,0.0088,0.0092,0.0095,0.0099,0.0084,0.0087,0.0058,0.0058,0.0058,0,0,0.0092,0.0095,0.0099,0.0105,0.0105,0.0117,0.0101,0.0108,0.012,0.0097,0.011,0.0097,0.0085,0.0093,0.0094,0.0087,0.009,0.0096,0.0099,0.0101,0.0085,0.0088,0.0091,0.0059,0.0059,0.0059,0,0,0.0104,0.0104,0.0117,0.0124,0.013,0.013,0.0133,0.0134,0.0137,0.0145,0.0131,0.0126,0.0122,0.0118,0.0114,0.0132,0.0108,0.0131,0.0158,0.0144,0.0146,0.0148,0.0118,0.0117,0.0135,0.0135,0.0135,0,0.0107,0.0126,0.0121,0.0138,0.0149,0.0138,0.0159,0.0161,0.0163,0.0169,0.0155,0.0148,0.0135,0.0145,0.015,0.0141,0.0124,0.0145,0.0149,0.0151,0.0152,0.012,0.0118,0.0137,0.0137,0.0137,0.0137,0,0.0132,0.015,0.0158,0.018,0.0189,0.0205,0.0209,0.022,0.0217,0.0215,0.022,0.0197,0.0195,0.0187,0.0174,0.018,0.0161,0.0154,0.014,0.0158,0.0123,0.012,0.014,0.014,0.0139,0.0138,0,0,0.0136,0.017,0.0175,0.0201,0.0216,0.0231,0.0253,0.0272,0.0294,0.0278,0.0297,0.0276,0.0258,0.0252,0.0232,0.0215,0.0201,0.0192,0.019,0.0165,0.0159,0.0153,0.0149,0.0197,0.0198,0.0198,0.0128,0,0.016,0.0204,0.0214,0.0262,0.0288,0.0296,0.0324,0.0339,0.0338,0.0353,0.0322,0.033,0.0285,0.029,0.0264,0.0222,0.0197,0.0219,0.0144,0.0141,0.0136,0.0147,0.0198,0.0126,0.0125,0.0125,0.0124,0,0.0185,0.0215,0.0264,0.0322,0.0335,0.0362,0.0409,0.0435,0.0445,0.0444,0.0432,0.0406,0.0381,0.0343,0.0266,0.0283,0.0225,0.0181,0.0178,0.0157,0.0131,0.0107,0.0119,0.0119,0.012,0.012,0.0121,0,0.0199,0.0254,0.0298,0.0315,0.0371,0.0403,0.0438,0.0463,0.05,0.0506,0.0524,0.0474,0.0464,0.0386,0.0286,0.0282,0.0194,0.0177,0.011,0.0108,0.0114,0.0113,0.0122,0.0122,0.0122,0.0123,0.0123,0,0.0225,0.0264,0.0313,0.0341,0.0412,0.0439,0.0512,0.0535,0.0574,0.0621,0.0577,0.0585,0.0476,0.041,0.0309,0.02,0.0209,0.0116,0.0096,0.0132,0.0134,0.0111,0.0111,0.012,0.0121,0.0121,0.0122,0,0.024,0.0266,0.0329,0.0395,0.0423,0.0479,0.0575,0.0626,0.0654,0.0713,0.0722,0.0672,0.0589,0.0467,0.0336,0.0241,0.0133,0.009,0.0131,0.0114,0.0046,0.0049,0.0011,0.0011,0.001,0.001,0.0009,0,0.0252,0.0281,0.0368,0.0417,0.0453,0.0539,0.0604,0.0662,0.0715,0.0762,0.0787,0.0731,0.068,0.0488,0.0346,0.0156,0.0126,0.0056,0.0054,0.0053,0.0037,0.0041,0.0044,0.0008,0.0008,0.0008,0.0008,0,0.0278,0.0305,0.0361,0.0454,0.053,0.0621,0.071,0.0757,0.0826,0.0848,0.0851,0.076,0.0663,0.0496,0.0352,0.0211,0.0095,0.0049,0.0049,0.0046,0.0049,0.0035,0.0039,0.0006,0.0006,0.0006,0.0007,0,0.03,0.0341,0.0408,0.0497,0.0589,0.0676,0.0728,0.0796,0.0852,0.0899,0.0889,0.0792,0.073,0.0524,0.0387,0.0255,0.0213,0.0152,0.0146,0.0146,0.0203,0.0227,0.0226,0,0,0,0,0,0.0321,0.0367,0.0447,0.0543,0.0632,0.0683,0.0788,0.0831,0.0891,0.0904,0.0905,0.0819,0.0632,0.0542,0.0411,0.0357,0.0175,0.0194,0.0098,-0.0005,-0.0003,0.004,0,0,0,0,0,0,0.0337,0.0404,0.0444,0.0559,0.0626,0.0726,0.0793,0.0837,0.0846,0.0882,0.0787,0.0759,0.0576,0.0707,0.0399,0.0359,0.0273,0.0113,0.011,-0.0006,-0.0004,-0.0002,0.0043,0,0,0,0,0]}]]